Regional Weather Roundup
Issued by NWS

Home | Current Version | Previous Version | Graphics & Text | Print | Product List | Glossary On
Versions: 1 2 3 4 5 6 7 8 9 10 11 12 13 14 15 16 17 18 19 20 21 22 23 24 25 26 27 28 29 30 31 32 33 34 35 36 37 38 39 40 41 42 43 44 45 46 47 48 49 50
000
ASUS43 KFSD 281110
RWRSD

WEATHER ROUNDUP FOR SOUTH DAKOTA
NATIONAL WEATHER SERVICE SIOUX FALLS SD
600 AM CDT FRI APR 28 2017

NOTE: "FAIR" INDICATES FEW OR NO CLOUDS BELOW 12,000 FEET WITH NO
SIGNIFICANT WEATHER AND/OR OBSTRUCTIONS TO VISIBILITY.


SDZ001>005-009-010-012>017-281200-
NORTHWEST AND NORTH CENTRAL SOUTH DAKOTA

CITY           SKY/WX    TMP DP  RH WIND       PRES   REMARKS
BUFFALO          N/A     31  26  82 NE9       29.78R WCI  23
FAITH            N/A     28  26  92 NE7       29.84R WCI  21
MOBRIDGE       CLOUDY    33  24  69 E14       29.86R WCI  23
$$

SDZ012>016-024>037-041>051-057-063-072>074-281200-
SOUTHWEST AND SOUTH CENTRAL SOUTH DAKOTA

CITY           SKY/WX    TMP DP  RH WIND       PRES   REMARKS
RAPID CTY ARPT FLURRIES  35  30  82 N8        29.79R WCI  29
PIERRE         CLOUDY    27  23  85 NE3       29.85R
CUSTER         LGT SNOW  29  25  85 NE17G28   29.70R VSB 3/4 WCI  17
ELLSWORTH AFB  CLOUDY    36  32  84 NE8       29.79R
PHILIP         MOCLDY    33  29  85 E12       29.82R WCI  24
PINE RIDGE     LGT RAIN  36  35  96 E20       29.72R
SPEARFISH      MIX PCPN  34  34 100 E12       29.79R WCI  25
WINNER         CLOUDY    36  29  75 E9        29.81R
$$

SDZ004>011-016>023-039-040-281200-
NORTHEAST SOUTH DAKOTA

CITY           SKY/WX    TMP DP  RH WIND       PRES   REMARKS
ABERDEEN       CLEAR     27  24  89 N6        29.90S WCI  20
WATERTOWN      CLEAR     23  22  96 N5        29.86S WCI  17
BROOKINGS      CLEAR     25  23  92 CALM      29.87R
SISSETON         N/A     27  25  92 N9        29.89S WCI  18
$$

SDZ017-020-022-023-036>040-048>070-281200-
SOUTHEAST SOUTH DAKOTA

CITY           SKY/WX    TMP DP  RH WIND       PRES   REMARKS
SIOUX FALLS    CLOUDY    26  25  96 N7        29.85S WCI  18
HURON          CLEAR     24  22  91 N3        29.88R
CHAMBERLAIN    CLOUDY    32  30  92 CALM      29.85R
MITCHELL       CLOUDY    26  24  92 N6        29.86S WCI  19
YANKTON        CLOUDY    30  25  80 NE3       29.83F
$$

ABBREVIATIONS USED IN REMARKS
   TC - TEMPERATURE IN CELSIUS
  WCI - WIND CHILL INDEX
   HX - HEAT INDEX
  VSB - VISIBILITY





USA.gov is the U.S. government's official web portal to all federal, state and local government web resources and services.